View from above orbital plane
|
View from above satellite
|
Ground track
|
The orbit data is extracted from the following two-line orbital elements,
1 6393U 73015B 21057.81742763 .00000181 00000-0 10254-3 0 9995
2 6393 81.2526 86.4695 0059518 80.2060 280.5822 14.05030278456663
Epoch (UTC): | 26 February 2021 19:37:05 |
Eccentricity: | 0.0059518 |
inclination: | 81.2526° |
perigee height: | 833 km |
apogee height: | 919 km |
right ascension of ascending node: | 86.4695° |
argument of perigee: | 80.2060° |
revolutions per day: | 14.05030278 |
mean anomaly at epoch: | 280.5822° |
orbit number at epoch: | 45666 |
The dashed part of the orbit path shows where the satellite is in the earth's shadow,
|
|